User: anonymous   Login
Location: PFO Observatory
(45.2937°N, 66.0991°W)
Time: 00:01:41
(UTC-03:00)
Language:

Cosmos 1151 Rocket - Orbit

View from above orbital plane
View from above orbital plane
View from above satellite
View from above satellite

Ground track
Ground track

The orbit data is extracted from the following two-line orbital elements,

1 11672U 80005B   17293.46946409  .00000121  00000-0  10483-4 0  9998
2 11672  82.5141 321.1290 0015188 260.3592  99.5910 14.87889397 42023
Epoch (UTC): 20 October 2017 11:16:01
Eccentricity: 0.0015188
inclination: 82.5141°
perigee height: 594 km
apogee height: 615 km
right ascension of ascending node: 321.1290°
argument of perigee: 260.3592°
revolutions per day: 14.87889397
mean anomaly at epoch: 99.5910°
orbit number at epoch: 4202

The dashed part of the orbit path shows where the satellite is in the earth's shadow,  

DLR